Regional Weather Roundup
Issued by NWS Bismarck, ND

Home | Current Version | Previous Version | Text Only | Print | Product List | Glossary On
Versions: 1 2 3 4 5 6 7 8 9 10 11 12 13 14 15 16 17 18 19 20 21 22 23 24 25 26 27 28 29 30 31 32 33 34 35 36 37 38 39 40 41 42 43 44 45 46 47 48 49 50
000
ASUS43 KBIS 281510
RWRBIS

NWR BROADCAST TEXT
NATIONAL WEATHER SERVICE BISMARCK ND
1000 AM CDT THU APR 28 2016

NOTE: "FAIR" INDICATES FEW OR NO CLOUDS BELOW 12,000 FEET WITH NO
SIGNIFICANT WEATHER AND/OR OBSTRUCTIONS TO VISIBILITY.


CITY           SKY/WX    TMP DP  RH WIND       PRES   REMARKS
WILLISTON      CLOUDY    46  23  40 E13       30.15R
MINOT          CLOUDY    46  20  35 NE10      30.15R
MINOT AFB      CLOUDY    44  21  40 NE12      30.15R
BISMARCK       CLOUDY    43  34  70 N3        30.11R
DICKINSON      CLOUDY    36  30  79 E6        30.07R
GARRISON         N/A     44  26  49 E10       30.12R
HETTINGER ARPT FLURRIES  34  32  92 NE12      30.08S
JAMESTOWN      CLOUDY    46  29  51 NE14      30.07R
BEACH          PTSUNNY   37  32  81 E8        30.12R
CARRINGTON     CLOUDY    43  28  56 NE10      30.11S
HAZEN          FAIR      45  28  53 NE9       30.14R
LINTON         CLOUDY    39  39 100 N6        30.10R
MANDAN         CLOUDY    41  36  81 N7        30.10S
OAKES            N/A    N/A N/A N/A MISG        N/A
RUGBY          FAIR      41  19  42 NE17      30.15R
STANLEY        FAIR      41  23  48 NE13G20   30.16R
TIOGA          FAIR      41  19  42 E13       30.20R
WATFORD CITY   FAIR      41  25  52 E9        30.14R
$$

CITY           SKY/WX    TMP DP  RH WIND       PRES   REMARKS
GRAND FORKS    CLOUDY    49  22  34 E13       30.13R
GRAND FORKS AF CLOUDY    48  20  33 E10       30.13R
DEVILS LAKE    PTSUNNY   43  23  45 NE15      30.13S
FARGO          CLOUDY    47  20  34 NE6       30.07R
CANDO          FAIR      43  18  36 NE13      30.17S
CAVALIER       FAIR      43  23  45 NE9       30.18S
GRAFTON        FAIR      45  25  45 NE12      30.18R
GWINNER        CLOUDY    43  32  65 NE12      30.05R
LANGDON        FAIR      41  21  45 NE14      30.16S
ROLLA          FAIR      39  19  45 NE13      30.17F
WALHALLA       FAIR      41  23  48 NE8       30.19S
$$

CITY           SKY/WX    TMP DP  RH WIND       PRES   REMARKS
ABERDEEN       CLOUDY    43  33  68 NE12      30.03R
MOBRIDGE       CLOUDY    40  36  86 N7        30.04R
BUFFALO          N/A     35  32  88 NE10      29.99R
RAPID CITY     CLOUDY    33  32  96 N8        30.03S FOG
GLASGOW        PTSUNNY   40  31  70 E8        30.15R
SIDNEY         CLOUDY    43  28  56 NE9       30.14R
WOLF POINT     CLOUDY    44  30  57 E10       30.15S
GLENDIVE       CLOUDY    39  30  70 NE8       30.13R
MILES CITY     CLOUDY    38  34  85 N10       30.10S
BAKER          CLOUDY    36  33  89 N8        30.08S
$$

CITY           SKY/WX    TMP DP  RH WIND       PRES   REMARKS
BILLINGS       SNOW      31  31 100 NE9       30.08R VSB 1/2
GREAT FALLS    LGT SNOW  33  32  96 NE10      30.10S FOG
REGINA         CLOUDY    48  18  29 E8        30.22S
ESTEVAN        CLOUDY    48  21  34 NE13      30.18S
$$





USA.gov is the U.S. government's official web portal to all federal, state and local government web resources and services.